Location: Bratsk-Energetik
(56.3300°N, 101.7600°E)
Time: 14:45:53
(UTC+08:00)

ISS - Pass Details

Date: 13 July 2018
Orbit: 402 x 408 km, 51.6° (Epoch: 16 July)

Event Time Altitude Azimuth Distance (km) Brightness Sun altitude
Exits shadow 01:47:36 12° 145° (SE) 1,333 -1.6 -11.5°
Drops below altitude 10° 01:48:57 10° 120° (ESE) 1,469 -1.2 -11.5°
Sets 01:52:00 0° 90° (E) 2,334 0.1 -11.5°
